STARLINK-34983

Last updated on Tue Sep 16 2025 00:02:07 GMT+0000 (Coordinated Universal Time)

1 65411U 25192H 25258.58341435 -.01476542 00000+0 -15562-1 0 9991 2 65411 53.1598 338.1191 0001138 78.6762 151.0246 15.66410233 3626
UTC large
Height (km)
Speed (km/s)
/
Latitude / Longitude
Inclination (degrees)
Orbital Period (minutes)
Azimuth
Elevation
Range (km)
Doppler Factor

Next 0 passes for location: London (51.5072 / 0.1276)

Sorry there are no passes over London.